Location: Edinburgh
(55.9500°N, 3.1600°W)
Time: 00:27:22
(UTC+00:00)

Vanguard 2 - All Passes

Search period start: 14 December 2017 00:00
Search period end: 24 December 2017 00:00
Orbit: 553 x 2939 km, 32.9° (Epoch: 13 December)

Date Brightness Start Highest point End Pass type
(mag) Time Alt. Az. Time Alt. Az. Time Alt. Az.
19 Dec - 14:41:31 10° SSW 14:43:45 11° S 14:45:45 10° SSE daylight
20 Dec - 12:51:30 10° S 12:53:44 11° SSE 12:55:47 10° SSE daylight
20 Dec - 14:58:11 10° SSW 15:01:19 12° S 15:04:02 10° SSE daylight
21 Dec - 13:06:38 10° SSW 13:11:21 13° S 13:15:18 10° SSE daylight
21 Dec - 15:15:27 10° SW 15:18:52 13° SSW 15:21:46 10° S daylight
22 Dec - 11:19:24 10° SSE 11:20:55 10° SSE 11:22:21 10° SSE daylight
22 Dec - 13:22:59 10° SSW 13:28:57 15° S 13:33:44 10° SE daylight
22 Dec - 15:33:08 10° SW 15:36:21 12° SSW 15:39:07 10° S daylight
23 Dec - 11:32:50 10° S 11:38:29 14° SSE 11:43:18 10° SE daylight
23 Dec - 13:39:50 10° SW 13:46:32 17° S 13:51:46 10° SSE daylight
23 Dec - 15:51:20 10° SW 15:53:47 11° SSW 15:55:57 10° S daylight
